Temperature
22 23 23 23 24 24 22 21 20 20 21 21 21 21 23 24 25 25 25 25 25 24 24 24 23 23 22 22 21 21 21 20 20 19 19 18 17 17 16 16 16 15 15 15
23 24 23 23 23 23 22 21 21 21 20 20 21 22 23 24 24 24 25 25 25 25 24 24 24 23 23 22 22 21 21 21 20 19 19 18 18 17 17 16 16 16 15 15
21 22 23 22 22 21 19 18 19 18 18 18 19 20 21 22 23 23 24 24 24 24 24 24 24 23 23 23 22 21 21 21 20 19 19 18 18 17 17 17 16 16 15 15
19 21 22 20 20 21 19 18 18 18 18 18 18 19 20 21 22 23 23 23 24 24 24 24 24 23 23 22 22 21 21 20 20 19 19 18 18 17 17 17 16 16 15 15
17 19 20 20 20 19 18 17 17 17 18 18 19 19 18 19 20 21 22 22 23 23 23 23 23 23 22 22 21 21 20 20 20 19 19 18 18 17 17 16 16 16 16 15
17 18 19 19 19 19 18 17 17 17 17 18 18 16 16 17 19 20 21 21 21 22 22 22 22 22 21 21 21 20 20 20 20 19 18 18 18 17 17 16 16 16 15 15
16 17 18 18 18 19 18 17 17 18 18 18 17 16 16 17 18 19 19 19 19 20 20 20 20 20 20 20 19 20 19 19 19 18 18 17 17 16 16 16 15 15 15 15
16 16 17 17 17 17 17 18 18 18 18 18 17 16 16 17 17 17 18 18 18 18 18 18 18 18 18 18 18 18 18 17 17 17 16 16 16 15 15 15 15 15 15 14
15 16 16 16 17 18 18 18 18 18 18 17 16 16 16 16 16 16 16 16 16 17 17 17 16 17 16 16 16 16 16 16 16 15 15 15 15 14 14 14 14 14 14 14
14 15 15 16 17 18 18 18 18 18 17 17 16 16 16 16 16 16 16 16 16 16 16 15 15 15 15 15 15 15 14 14 14 14 14 14 13 13 13 13 13 13 13 13
14 15 15 16 17 17 17 17 17 17 17 16 16 16 16 15 15 15 15 15 14 14 14 14 14 14 14 14 14 13 13 13 13 12 12 12 12 12 12 12 12 12 12 12
14 15 14 15 16 17 17 16 16 16 16 16 16 15 15 15 14 14 14 14 14 13 13 13 13 12 12 12 12 12 12 12 12 11 11 11 11 11 11 11 11 11 11 12
17 16 16 16 16 16 16 16 16 16 15 15 15 15 14 14 14 13 13 13 12 12 12 12 11 11 11 11 11 11 11 11 10 10 10 10 10 10 10 10 11 11 11 11
16 16 15 16 16 16 16 15 15 15 15 14 14 14 14 13 13 12 12 12 12 11 11 11 11 11 10 10 10 10 10 10 9 9 9 9 9 9 9 9 9 10 10 10
16 16 15 15 15 15 15 15 15 14 14 14 14 13 13 12 12 12 11 11 11 11 11 10 10 10 10 10 10 10 9 9 9 8 8 8 8 8 8 8 8 9 9 10
15 15 15 15 15 15 14 14 14 14 13 13 13 12 12 12 11 11 11 11 11 10 10 10 10 10 10 10 9 9 9 8 8 8 8 7 7 7 7 7 7 8 8 8
15 14 14 14 14 14 14 14 13 13 13 13 12 12 12 11 11 11 11 10 10 10 10 10 10 10 9 9 9 9 8 8 8 7 7 6 6 6 6 6 6 7 7 8
15 14 14 14 14 14 13 13 13 13 12 12 12 11 11 11 11 11 10 10 10 10 10 10 10 9 9 9 8 8 8 7 7 6 6 6 5 5 5 5 5 6 6 7
14 14 14 14 13 13 13 13 12 12 12 12 11 11 11 11 11 11 10 10 10 10 10 10 9 9 9 8 8 7 7 6 6 5 5 5 5 5 5 5 5 5 6 6
14 14 13 13 13 13 12 12 12 12 11 11 11 11 11 11 11 10 10 10 10 10 9 9 9 8 8 8 7 6 6 5 5 4 4 4 4 4 4 4 4 4 5 5
13 13 12 12 12 12 12 11 11 11 11 11 11 11 11 11 11 10 10 10 10 9 9 8 8 8 7 6 6 5 5 4 4 3 3 3 3 3 3 3 3 4 4 4
12 12 12 12 11 11 11 11 11 11 11 11 11 11 11 11 10 10 10 9 9 9 8 8 7 6 6 5 4 4 3 3 2 2 2 2 2 2 2 2 3 3 3 3
11 11 11 11 11 11 11 11 11 11 11 11 11 11 10 10 10 10 9 9 8 8 7 6 6 5 4 4 3 2 2 2 1 1 1 1 1 1 1 2 2 2 2 2
11 11 11 11 11 11 11 11 10 10 10 10 10 10 10 10 9 9 8 8 7 6 6 5 4 3 3 2 2 1 1 1 0 0 0 0 0 1 1 1 1 1 2 2
11 11 11 10 10 10 10 10 10 10 10 9 9 9 9 9 8 8 7 6 6 5 4 3 3 2 1 1 0 0 -0 -0 -0 -1 -0 -0 -0 0 0 1 1 1 1 2
10 10 10 9 9 9 9 9 9 9 9 9 8 8 8 8 7 7 6 5 5 4 3 2 2 1 0 -0 -0 -1 -1 -1 -1 -1 -1 -1 -0 -0 0 0 1 1 1 2
9 9 9 9 8 8 8 8 8 8 8 8 7 7 7 7 6 5 5 4 3 2 2 1 1 -0 -1 -1 -1 -1 -1 -1 -1 -1 -1 -1 -1 -0 -0 0 1 1 1 2
Wind_Speed
7 6 3 3 3 1 0 3 4 5 4 7 8 7 6 6 6 7 9 12 14 15 14 13 13 13 14 13 13 12 12 12 12 11 10 9 9 9 9 9 9 9 8 8
4 4 2 3 3 1 3 4 3 4 4 7 4 2 2 2 3 5 8 11 13 14 14 15 16 16 14 14 13 12 13 13 12 10 10 10 10 9 9 9 9 8 8 8
4 5 3 2 1 5 8 7 5 4 4 6 8 8 6 4 3 2 4 6 9 11 13 14 15 15 16 16 13 12 13 12 11 11 12 12 11 10 10 10 9 8 8 8
1 3 1 4 1 9 12 9 7 5 5 6 6 6 8 9 6 3 1 3 5 6 8 8 9 11 12 10 11 13 12 11 11 11 12 11 10 11 10 8 8 8 8 9
3 2 2 1 1 2 6 4 3 4 6 7 6 10 11 13 9 7 6 4 0 3 4 5 6 7 8 9 9 10 11 11 12 12 12 11 11 11 9 8 8 8 7 9
4 3 5 5 2 2 8 1 3 2 4 4 6 5 4 9 10 12 12 11 9 8 8 5 3 2 4 6 7 9 11 11 10 10 10 11 11 10 8 8 10 9 9 9
3 3 5 3 2 2 3 7 6 4 4 4 4 4 1 4 9 11 12 13 12 12 11 10 8 5 2 1 4 7 6 5 6 7 8 8 8 7 7 8 8 9 9 9
3 3 5 2 1 2 5 3 5 4 5 8 8 7 5 6 9 11 12 13 12 12 11 10 10 8 7 4 4 3 1 1 2 3 4 5 6 6 6 7 9 9 9 9
5 5 3 3 3 2 2 3 3 4 6 9 9 8 7 8 9 9 10 10 9 10 11 11 11 10 8 7 6 6 5 3 3 3 3 3 4 6 5 6 7 8 8 10
2 1 1 0 2 2 2 4 6 8 9 10 10 9 9 8 8 8 8 8 8 9 10 10 9 9 7 7 7 7 7 6 5 5 5 5 4 5 5 6 8 9 9 10
3 2 3 2 3 5 8 10 11 12 11 10 10 9 8 7 6 6 6 6 6 7 7 7 7 8 8 7 7 7 6 6 6 5 5 6 6 6 8 8 10 11 10 10
7 8 7 4 3 7 11 10 10 12 11 9 9 8 7 6 5 5 6 6 6 7 7 6 7 8 7 6 6 6 6 6 5 5 6 6 8 9 12 14 17 18 19 16
8 9 8 7 7 9 10 9 10 10 10 8 6 6 6 4 4 5 6 6 6 6 5 5 6 6 6 6 6 6 5 6 5 6 6 7 8 9 12 13 15 17 18 18
14 13 11 8 9 10 11 10 10 9 8 7 6 6 6 5 5 5 4 4 3 4 4 4 4 5 6 5 5 6 6 7 7 6 6 7 8 9 9 11 11 10 12 14
10 11 11 10 10 10 9 10 10 8 7 7 6 6 6 5 3 3 3 3 3 4 4 4 4 5 6 4 5 6 6 6 6 6 7 7 8 9 9 11 10 10 9 9
11 11 12 12 11 10 10 10 8 6 5 5 4 3 2 2 1 3 4 3 2 3 4 4 5 6 5 4 4 4 5 10 10 7 7 7 8 9 9 10 10 10 9 8
12 9 10 9 8 8 8 7 6 4 4 3 1 1 1 2 3 4 5 5 4 5 5 5 6 6 4 3 3 4 5 8 12 9 7 7 8 9 10 10 10 10 9 9
10 8 8 8 7 7 6 5 5 4 2 1 1 1 2 2 4 5 7 6 6 6 7 6 5 4 3 3 4 4 5 6 6 6 7 7 8 8 9 10 10 11 9 9
9 8 7 7 6 6 5 4 3 1 1 2 2 4 5 5 6 7 6 6 6 7 7 6 6 3 3 5 6 4 5 6 6 6 6 9 9 8 9 10 10 10 9 7
8 7 8 7 6 5 3 1 1 2 3 4 4 5 6 7 7 7 6 5 5 6 5 3 3 3 4 6 9 5 5 6 6 7 7 7 8 9 9 9 9 9 9 7
8 8 7 6 4 3 2 1 2 4 6 6 5 6 7 8 7 5 4 5 6 4 2 4 3 3 4 6 8 5 5 6 6 7 7 8 8 8 9 9 9 8 8 8
6 5 5 4 4 4 4 4 5 6 7 7 7 7 6 7 6 4 3 2 2 2 3 3 3 5 8 8 5 6 6 7 6 7 7 8 8 9 9 10 9 8 8 8
3 2 3 3 4 5 6 6 7 7 7 7 7 7 5 4 2 0 1 2 1 3 3 3 6 9 10 7 6 6 6 7 7 7 8 8 9 9 9 10 9 8 8 8
3 4 5 5 5 5 7 8 7 5 6 6 5 4 2 1 2 2 1 2 4 5 4 5 9 11 10 6 6 6 6 7 7 8 8 9 9 9 9 9 9 8 8 9
4 5 5 6 5 5 5 5 5 6 6 4 5 5 3 2 2 2 3 5 7 7 5 7 10 10 7 6 6 7 7 7 8 9 9 9 9 9 9 9 9 9 8 8
4 4 3 3 2 2 3 3 3 4 3 3 3 3 4 4 5 5 5 6 8 8 5 5 6 7 6 6 7 7 7 9 9 9 10 10 10 10 9 10 11 9 9 8
5 4 4 4 4 4 4 3 3 4 3 1 2 3 4 5 6 6 6 6 5 6 5 5 6 6 6 6 7 7 8 8 9 9 10 10 9 9 10 11 9 9 8 9
Wind_Direction
221 233 214 238 273 303 152 202 200 252 236 244 233 215 214 213 197 181 181 180 182 183 184 186 186 189 190 192 191 187 184 190 198 199 198 199 203 208 211 212 216 215 218 223
288 278 281 282 298 13 37 21 36 32 354 319 325 47 72 106 145 168 179 183 184 184 185 190 193 194 195 197 196 188 190 199 199 194 196 201 206 208 210 215 218 216 219 222
271 299 27 299 276 105 83 48 63 59 325 340 21 37 30 30 82 141 168 173 182 187 192 196 199 196 199 202 195 192 198 201 197 195 199 206 207 206 211 215 216 219 224 223
216 24 266 259 346 111 98 66 58 59 18 23 42 40 34 24 39 43 73 156 185 195 199 201 197 198 199 193 189 195 200 203 200 198 204 205 204 209 213 212 213 219 225 226
128 153 260 287 342 137 112 59 16 63 39 37 21 36 24 11 24 40 46 45 186 202 204 206 209 204 188 189 191 195 202 204 202 200 203 204 208 214 212 208 215 217 219 223
120 142 223 237 297 155 109 111 262 118 76 50 45 54 350 352 23 34 36 36 34 33 36 26 317 223 180 197 197 211 216 213 207 200 201 206 214 217 213 210 218 220 226 225
149 186 249 263 321 28 157 216 208 186 142 104 103 137 181 15 37 42 42 39 40 43 41 25 14 47 71 340 253 244 237 217 209 209 212 216 219 220 219 220 224 226 232 235
146 164 242 279 39 196 222 188 167 156 124 111 112 115 96 62 50 44 42 38 38 41 37 27 28 44 43 9 317 333 6 246 233 226 226 231 228 233 231 228 232 236 238 246
178 203 226 202 188 239 167 144 150 133 115 116 113 102 82 63 51 46 44 39 35 40 35 27 27 38 35 0 4 25 30 10 338 310 283 263 243 246 249 239 239 245 242 247
130 249 208 133 99 67 104 105 101 103 105 104 99 88 73 60 49 41 35 35 34 39 36 24 18 29 27 18 33 39 29 10 356 343 326 315 294 269 259 255 253 253 249 250
133 152 97 42 67 104 99 92 89 88 89 93 91 79 72 59 45 37 31 25 34 38 32 19 16 21 21 25 36 34 19 2 347 334 318 308 297 281 271 260 254 254 255 249
185 182 152 161 154 119 107 103 100 94 82 75 82 79 68 52 35 32 26 23 26 26 25 17 21 18 12 17 33 31 10 351 336 328 319 310 305 303 286 274 272 262 255 251
140 135 125 126 118 113 112 110 101 96 92 82 70 70 65 47 33 37 33 29 27 24 21 22 23 12 358 1 16 16 352 332 325 323 320 316 312 308 306 303 290 280 269 260
115 111 100 104 109 106 104 100 93 85 78 75 65 55 53 46 38 34 23 13 22 22 16 14 11 349 330 345 1 351 336 324 320 309 307 308 308 306 302 301 302 298 290 274
98 105 116 111 98 94 94 91 83 75 69 60 58 59 60 54 33 2 337 345 13 9 349 342 336 317 310 329 345 335 327 315 310 307 306 305 307 308 307 303 298 293 292 288
106 100 100 97 94 92 90 90 89 84 79 69 63 63 64 55 7 332 326 332 340 314 295 297 294 290 297 315 330 324 315 317 321 312 309 311 313 314 313 308 302 295 290 285
108 102 100 98 95 91 93 100 105 101 85 77 81 111 44 22 349 325 309 298 283 274 272 277 279 284 296 305 314 307 305 311 318 317 310 309 313 314 313 310 305 300 293 285
112 121 122 119 116 104 94 89 90 89 87 26 2 340 311 287 280 279 280 288 299 298 290 281 273 282 299 304 308 301 301 302 306 306 307 310 311 311 312 310 308 304 299 295
107 107 105 105 108 107 101 93 92 92 336 309 305 286 272 266 265 269 278 294 297 289 286 285 296 313 316 316 326 305 309 312 314 311 309 313 315 312 311 311 312 309 305 299
83 84 85 81 80 85 87 87 60 315 293 287 287 286 285 279 273 278 289 286 275 269 277 306 331 342 331 324 334 320 321 322 321 320 318 317 316 315 316 317 319 321 322 325
67 64 63 62 54 44 26 339 304 293 289 288 279 269 267 272 280 288 296 296 300 313 354 13 14 350 335 334 336 334 333 332 330 327 326 324 321 322 323 323 324 329 333 336
59 52 44 31 11 337 310 299 290 288 290 287 282 276 279 289 300 312 314 287 299 24 49 28 11 355 353 351 345 342 342 341 338 334 331 327 324 322 323 325 327 330 331 331
36 14 347 323 303 291 297 299 297 295 289 286 286 286 282 286 289 243 326 332 23 67 62 33 12 9 8 3 352 349 347 348 343 338 333 329 325 324 324 325 327 329 329 329
328 309 296 292 299 305 303 301 305 305 306 309 314 314 318 32 40 52 114 65 64 69 60 31 23 17 13 4 356 354 350 347 343 337 332 328 326 326 325 325 324 324 325 326
308 306 308 316 319 308 300 314 332 340 348 350 356 10 27 74 100 87 70 60 58 62 48 25 23 19 15 4 360 355 349 346 342 336 331 329 327 326 325 325 325 323 323 323
336 332 333 342 344 339 344 354 348 335 337 352 4 15 37 58 74 79 71 62 57 55 44 26 21 21 14 4 357 353 349 343 340 337 333 331 329 330 328 329 327 327 326 326
3 5 4 0 352 353 353 350 339 327 324 354 22 33 58 71 78 76 70 62 54 46 38 33 27 17 8 0 357 353 348 345 342 340 338 337 336 334 333 332 330 329 330 330
Height
1498 1493 1494 1495 1493 1490 1497 1502 1508 1504 1499 1492 1485 1482 1481 1482 1483 1485 1487 1490 1492 1495 1498 1501 1504 1506 1508 1510 1512 1513 1514 1515 1516 1518 1519 1519 1519 1519 1519 1518 1518 1517 1516 1515
1495 1489 1491 1493 1491 1490 1494 1495 1496 1497 1499 1491 1486 1483 1482 1483 1483 1484 1485 1487 1490 1492 1495 1497 1499 1501 1503 1505 1506 1508 1509 1510 1511 1512 1513 1514 1514 1514 1514 1513 1513 1512 1511 1510
1506 1494 1494 1503 1496 1495 1502 1502 1502 1508 1506 1495 1491 1487 1486 1485 1484 1485 1485 1487 1488 1490 1492 1493 1495 1497 1498 1500 1501 1503 1503 1505 1506 1507 1507 1508 1508 1509 1508 1508 1508 1507 1506 1505
1507 1503 1512 1505 1492 1492 1498 1503 1501 1500 1499 1496 1495 1492 1491 1488 1486 1486 1486 1487 1488 1488 1489 1490 1491 1492 1494 1495 1496 1497 1498 1499 1500 1501 1501 1502 1502 1502 1502 1503 1502 1502 1501 1500
1510 1513 1509 1499 1494 1494 1499 1506 1501 1499 1496 1493 1493 1490 1493 1493 1491 1488 1487 1487 1487 1487 1487 1488 1488 1488 1489 1490 1491 1492 1492 1492 1493 1494 1494 1495 1495 1496 1496 1496 1496 1495 1494 1493
1509 1513 1515 1501 1492 1491 1495 1507 1499 1496 1495 1493 1493 1500 1503 1498 1493 1490 1488 1487 1486 1485 1485 1485 1485 1485 1485 1485 1486 1486 1486 1486 1487 1488 1488 1489 1489 1489 1490 1489 1489 1489 1488 1487
1508 1510 1505 1493 1491 1492 1505 1503 1494 1493 1493 1493 1495 1501 1503 1499 1495 1492 1490 1489 1487 1486 1484 1484 1483 1483 1483 1483 1482 1482 1482 1482 1482 1483 1483 1483 1483 1483 1483 1482 1482 1481 1480 1479
1505 1509 1506 1491 1490 1494 1494 1489 1490 1491 1493 1494 1497 1500 1501 1499 1496 1494 1492 1490 1489 1487 1485 1484 1483 1481 1480 1479 1479 1479 1478 1478 1477 1477 1478 1478 1477 1477 1476 1475 1474 1473 1472 1471
1496 1497 1489 1488 1487 1488 1490 1491 1492 1493 1495 1496 1498 1499 1499 1498 1497 1495 1494 1492 1491 1489 1487 1485 1483 1481 1479 1478 1477 1476 1475 1474 1474 1474 1473 1472 1471 1470 1469 1468 1467 1465 1464 1462
1491 1490 1489 1489 1487 1489 1493 1493 1493 1495 1497 1498 1498 1499 1498 1498 1498 1497 1495 1493 1491 1489 1487 1485 1484 1482 1480 1478 1476 1474 1473 1472 1470 1469 1468 1467 1466 1464 1463 1461 1459 1457 1455 1453
1490 1489 1489 1491 1490 1491 1495 1496 1497 1498 1499 1499 1499 1499 1499 1499 1498 1498 1496 1494 1492 1490 1488 1486 1484 1481 1479 1477 1475 1473 1471 1469 1468 1465 1463 1461 1460 1458 1456 1454 1452 1449 1446 1444
1483 1483 1486 1490 1491 1492 1494 1497 1498 1499 1499 1500 1500 1501 1500 1500 1499 1498 1496 1494 1492 1489 1487 1485 1483 1481 1478 1476 1474 1471 1469 1466 1464 1461 1459 1456 1453 1450 1447 1445 1442 1440 1437 1435
1473 1480 1483 1488 1492 1494 1496 1498 1499 1500 1501 1501 1502 1502 1501 1500 1499 1498 1496 1493 1491 1489 1487 1485 1482 1480 1477 1475 1472 1470 1467 1464 1461 1458 1454 1451 1447 1443 1438 1434 1432 1430 1427 1425
1475 1479 1485 1489 1492 1495 1497 1499 1500 1501 1502 1502 1502 1502 1501 1500 1498 1497 1495 1493 1491 1489 1486 1484 1481 1478 1476 1473 1470 1467 1464 1461 1457 1453 1450 1446 1442 1437 1432 1427 1423 1419 1417 1415
1481 1483 1487 1491 1494 1496 1498 1500 1501 1502 1502 1503 1502 1501 1500 1499 1498 1496 1494 1492 1489 1487 1484 1482 1479 1476 1473 1471 1467 1464 1460 1457 1453 1449 1444 1440 1436 1431 1426 1421 1416 1411 1408 1406
1486 1489 1491 1493 1496 1497 1499 1500 1501 1502 1502 1502 1501 1501 1499 1498 1496 1494 1492 1490 1487 1484 1482 1479 1476 1473 1470 1467 1464 1460 1456 1452 1448 1443 1439 1434 1429 1424 1419 1414 1409 1404 1401 1398
1488 1492 1494 1495 1497 1498 1499 1500 1501 1502 1501 1501 1500 1499 1497 1495 1493 1491 1489 1487 1484 1481 1478 1475 1472 1469 1466 1463 1459 1455 1451 1447 1442 1438 1433 1428 1423 1418 1413 1408 1403 1398 1394 1392
1492 1494 1496 1497 1498 1499 1500 1500 1500 1500 1500 1499 1497 1496 1494 1492 1490 1488 1486 1483 1480 1477 1474 1471 1468 1465 1462 1458 1454 1450 1445 1441 1436 1432 1427 1422 1417 1413 1408 1403 1397 1393 1388 1385
1495 1496 1497 1499 1499 1499 1499 1499 1499 1498 1497 1496 1494 1492 1490 1488 1486 1484 1481 1479 1476 1472 1470 1467 1464 1460 1457 1453 1448 1444 1440 1435 1430 1426 1421 1417 1412 1407 1403 1398 1392 1387 1383 1380
1496 1497 1498 1498 1498 1498 1498 1497 1496 1495 1494 1492 1490 1488 1486 1484 1482 1479 1477 1474 1471 1468 1465 1462 1459 1455 1451 1447 1443 1438 1434 1429 1425 1420 1415 1411 1406 1402 1397 1393 1388 1383 1379 1376
1496 1497 1497 1497 1497 1496 1496 1495 1493 1492 1490 1488 1486 1484 1482 1480 1477 1475 1472 1469 1467 1464 1461 1458 1454 1450 1446 1442 1437 1433 1428 1424 1419 1415 1410 1406 1402 1397 1393 1388 1384 1379 1376 1373
1496 1496 1496 1496 1495 1494 1493 1492 1490 1488 1486 1484 1482 1480 1477 1475 1473 1470 1468 1465 1462 1459 1456 1453 1449 1445 1441 1437 1432 1428 1423 1419 1415 1410 1406 1402 1398 1393 1389 1385 1381 1377 1374 1371
1495 1495 1494 1493 1492 1491 1489 1488 1486 1484 1482 1480 1477 1475 1473 1471 1468 1466 1464 1461 1458 1455 1452 1448 1444 1440 1436 1432 1428 1423 1419 1415 1411 1407 1403 1398 1394 1390 1386 1382 1378 1374 1371 1368
1494 1493 1491 1490 1489 1487 1485 1484 1482 1480 1478 1476 1474 1471 1469 1467 1465 1463 1460 1458 1455 1451 1448 1444 1440 1436 1432 1428 1424 1420 1416 1412 1408 1404 1399 1395 1391 1387 1383 1379 1375 1372 1369 1366
1491 1490 1488 1487 1485 1483 1482 1480 1478 1477 1475 1473 1471 1469 1467 1464 1462 1460 1457 1454 1451 1448 1444 1440 1437 1433 1429 1426 1422 1418 1414 1410 1406 1401 1397 1392 1388 1384 1380 1376 1373 1369 1366 1363
1488 1487 1485 1484 1482 1481 1479 1477 1475 1474 1472 1470 1468 1466 1464 1462 1459 1457 1454 1451 1448 1445 1442 1438 1435 1431 1428 1424 1420 1416 1412 1408 1404 1399 1395 1390 1386 1382 1378 1374 1370 1367 1364 1361
1486 1484 1483 1481 1479 1478 1476 1474 1473 1471 1469 1467 1465 1463 1461 1459 1456 1454 1451 1449 1446 1443 1440 1437 1434 1430 1427 1423 1419 1416 1412 1408 1403 1399 1394 1389 1385 1380 1376 1372 1369 1366 1362 1359